Location: Bothwell
(42.3833°S, 147.0000°E)
Time: 04:28:08
(UTC+11:00)

ITUPSAT 1 - Pass Details

Date: 01 October 2022
Orbit: 700 x 710 km, 98.5° (Epoch: 29 November)

Event Time Altitude Azimuth Distance (km) Brightness Sun altitude
Exits shadow 20:10:30 20° 1° (N) 1,638 ? -20.8°
Maximum altitude 20:13:52 66° 282° (WNW) 785 ? -21.3°
Drops below altitude 10° 20:18:43 10° 199° (SSW) 2,221 ? -22.1°
Sets 20:21:01 0° 196° (SSW) 3,149 ? -22.5°
